Regional Weather Roundup
Issued by NWS

Home | Current Version | Previous Version | Graphics & Text | Print | Product List | Glossary On
Versions: 1 2 3 4 5 6 7 8 9 10 11 12 13 14 15 16 17 18 19 20 21 22 23 24 25 26 27 28 29 30 31 32 33 34 35 36 37 38 39 40 41 42 43 44 45 46 47 48 49 50
000
ASUS43 KIND 052059
RWRIN

WEATHER ROUNDUP FOR INDIANA
NATIONAL WEATHER SERVICE INDIANAPOLIS IN
500 PM EDT THU MAY 05 2016

NOTE: "FAIR" INDICATES FEW OR NO CLOUDS BELOW 12,000 FEET WITH NO
SIGNIFICANT WEATHER AND/OR OBSTRUCTIONS TO VISIBILITY.

* - STATION DOES NOT REPORT WEATHER SUCH AS PRECIPITATION OR FOG.

+ - STATION NOT QUALITY CONTROLLED BY THE NATIONAL WEATHER SERVICE.
    USE DATA WITH CAUTION...ESPECIALLY DEWPOINT AND RELATIVE
    HUMIDITY OBSERVATIONS.

INZ001>003-010>013-019-020-052200-
NORTHWEST INDIANA

CITY           SKY/WX    TMP DP  RH WIND       PRES   REMARKS
GARY /AIRPORT/ SUNNY     52  46  82 N14       30.02
RENSSELAER +   SUNNY     61  41  48 N13       29.96S

$$

LMZ046-743>745-052200-
SOUTHERN LAKE MICHIGAN

STATION/POSITION TIME  TEMP    WIND        PRES    WAVE
                       AIR SEA DIR/SP/G            HT
                 (UTC) (F)     (DEG/KT/KT) (MB)    (FT)
BURNS HARBOR     2018   43      10/  6/ 11 1016.9F
MICHIGAN CITY    2000   44     330/ 11/ 13   N/A

$$

INZ004-005-014>016-021>024-052200-
NORTH CENTRAL INDIANA

CITY           SKY/WX    TMP DP  RH WIND       PRES   REMARKS
ELKHART        MOSUNNY   63  50  63 NW12G20   29.93F
GOSHEN         MOSUNNY   63  49  60 NW15      29.90F
SOUTH BEND     SUNNY     55  45  68 NW17      29.96F

$$

INZ006>009-017-018-025>027-052200-
NORTHEAST INDIANA

CITY           SKY/WX    TMP DP  RH WIND       PRES   REMARKS
ANGOLA *+        N/A     63  43  48 NE7       29.88S
FORT WAYNE     PTSUNNY   64  42  44 N15G21    29.87F

$$

INZ028-029-035-036-043>045-051>053-052200-
WEST CENTRAL INDIANA

CITY           SKY/WX    TMP DP  RH WIND       PRES   REMARKS
CRAWFORDSVL +  PTSUNNY   60  47  64 NE10G16   29.93F
GREENCASTLE +  MOSUNNY   59  48  67 N12       29.94F
LAFAYETTE      MOSUNNY   63  44  50 NW21G28   29.93F
TERRE HAUTE    SUNNY     64  44  48 N13       29.94S

$$

INZ030>032-037>040-046>048-054>057-064-065-052200-
CENTRAL INDIANA

CITY           SKY/WX    TMP DP  RH WIND       PRES   REMARKS
COLUMBUS       PTSUNNY   59  50  72 NW17      29.89F
INDIANAPOLIS   PTSUNNY   60  46  59 NW16      29.90F
-EAGLE CREEK   PTSUNNY   62  48  60 NW12      29.90F
KOKOMO *+      PTSUNNY   64  46  52 N15       29.89F
SHELBYVILLE    PTSUNNY   65  46  50 N16       29.87F

$$

INZ033-034-041-042-049-050-058-059-052200-
EAST CENTRAL INDIANA

CITY           SKY/WX    TMP DP  RH WIND       PRES   REMARKS
MUNCIE         CLOUDY    62  46  55 N12       29.88S

$$

INZ060-061-067>069-081>083-085>088-052200-
SOUTHWEST INDIANA

CITY           SKY/WX    TMP DP  RH WIND       PRES   REMARKS
EVANSVILLE     PTSUNNY   58  45  62 N12       29.96S
HUNTINGBURG *+ CLOUDY    57  45  62 N9        29.94S

$$

INZ062-063-066-070>080-084-089>092-052200-
SOUTH CENTRAL AND SOUTHEAST INDIANA

CITY           SKY/WX    TMP DP  RH WIND       PRES   REMARKS
BLOOMINGTON    MOSUNNY   59  44  57 N10G17    29.93F
MADISON *+     CLOUDY    54  45  71 CALM      29.91S
SEYMOUR +      MOSUNNY   61  46  59 N10       29.89F

$$





USA.gov is the U.S. government's official web portal to all federal, state and local government web resources and services.